#timestamp,LO_Frequency,Hit,StdDev 
1556035215.7,286047001.7,N
1556035235.6,286047005.7,N
1556035255.4,286047001.5,N
1556035275.3,286047002.8,N
1556035295.1,286046998.7,N
1556035296.0,286046998.7,N
1556035315.8,286046999.8,N
1556035335.7,286047002.5,N
1556035355.5,286047000.3,N
1556035375.3,286046999.9,N
1556035395.2,286047000.6,N
1556035415.0,286047001.5,N
1556035415.9,286047001.5,N
1556035435.8,286047003.8,N
1556035455.6,286047002.2,N
1556035475.4,286047001.3,N
1556035495.3,286047002.0,N
1556035515.1,286047002.3,N
1556035535.8,286047001.6,N
1556035555.7,286047004.4,N
1556035575.5,286047001.3,N
1556035595.4,286047004.3,N
1556035615.2,286047004.0,N
1556035635.0,286047003.0,N
1556035635.9,286047003.0,N
1556035655.8,286047004.7,N
1556035675.6,286047005.7,N
1556035695.4,286047005.2,N
1556035715.3,286047005.4,N
1556035735.1,286047003.4,N
1556035755.9,286047004.3,N
1556035775.7,286047003.9,N
1556035795.5,286047001.3,N
1556035815.4,286047005.6,N
1556035835.2,286047001.4,N
1556035855.0,286047003.6,N
1556035855.9,286047003.6,N
1556035875.8,286047003.5,N
1556035895.6,286047004.7,N
1556035915.5,286047003.1,N
1556035935.3,286047004.7,Y
1556035955.1,286047002.4,P
1556035975.9,286046998.9,N
1556035995.7,286046996.8,N
1556036015.6,286046995.0,N
1556036035.4,286046999.6,N
1556036055.2,286046997.7,N
1556036075.1,286047001.1,N
1556036076.0,286047001.1,N
1556036095.8,286046999.1,N
1556036115.7,286046999.0,N
1556036135.5,286046997.4,N
1556036155.3,286046993.3,N
1556036175.2,286046999.6,N
1556036195.0,286046999.5,N
1556036195.9,286046999.5,N
1556036215.7,286046999.4,N
1556036235.6,286046998.1,N
1556036255.4,286047000.5,N
1556036275.3,286047000.1,N
1556036295.1,286046998.7,N
1556036296.0,286046998.7,N
1556036315.8,286047001.0,N
1556036335.7,286047000.6,N
1556036355.5,286046999.6,N
1556036375.4,286046999.4,N
1556036395.2,286047002.7,N
1556036415.0,286047002.6,N
1556036415.9,286047002.6,N
1556036435.8,286047000.5,N
1556036455.6,286046999.0,N
1556036475.5,286046996.9,N
1556036495.3,286046996.9,N
1556036515.1,286046999.6,N
1556036535.9,286046999.0,N
1556036555.7,286046998.9,N
1556036575.5,286046998.8,N
1556036595.4,286047000.9,N
1556036615.2,286047002.5,N
1556036635.0,286047004.3,N
1556036635.9,286047004.3,N
1556036655.8,286046999.9,N
1556036675.6,286047000.9,N
1556036695.5,286046998.7,N
1556036715.3,286046998.9,N
1556036735.1,286046999.1,N
1556036755.9,286046999.1,N
1556036775.7,286046997.8,N
1556036795.5,286047000.4,N
1556036815.4,286047002.6,N
1556036835.2,286047001.8,N
1556036855.1,286047005.6,N
1556036856.0,286047005.6,N
1556036875.8,286047003.2,N
1556036895.6,286047002.5,N
1556036915.5,286046998.6,N
1556036935.3,286046999.7,N
1556036955.1,286046999.7,N
1556036975.9,286047001.8,N
1556036995.7,286047002.3,N
1556037015.6,286047002.4,N
1556037035.4,286047000.3,N
1556037055.2,286046999.9,N
1556037075.1,286046998.2,N
1556037076.0,286046998.2,N
1556037095.8,286047000.5,N
1556037115.6,286047000.9,N
1556037135.5,286046998.9,N
1556037155.3,286047001.0,N
1556037175.2,286047000.3,N
1556037195.9,286046999.8,N
1556037215.7,286046998.1,N
1556037235.6,286047000.0,N
1556037255.4,286047002.8,N
1556037275.2,286047002.4,N
1556037295.1,286047002.5,N
1556037296.0,286047002.5,N
1556037315.8,286047003.7,N
1556037335.7,286047001.5,N
1556037355.5,286047002.0,N
1556037375.3,286047002.1,N
1556037395.2,286047001.5,N
1556037415.0,286047002.1,N
1556037415.9,286047002.1,N
1556037435.7,286047001.5,N
1556037455.6,286046998.5,N
1556037475.4,286047000.7,N
1556037495.3,286046998.3,N
1556037515.1,286046997.4,N
1556037516.0,286046997.4,N
1556037535.8,286046999.1,N
1556037555.7,286047000.6,N
1556037575.5,286046998.1,N
1556037595.3,286046999.5,N
1556037615.2,286047000.4,N
1556037635.0,286047001.3,N
1556037635.9,286047001.3,N
1556037655.8,286047002.2,N
1556037675.6,286046999.8,N
1556037695.4,286046998.3,N
1556037715.3,286046996.5,N
1556037735.1,286046999.0,N
1556037755.8,286047001.2,N
1556037775.7,286047001.2,N
1556037795.5,286046998.3,N
1556037815.4,286047001.2,N
1556037835.2,286046998.7,N
1556037855.0,286046999.4,N
1556037855.9,286046999.4,N
1556037875.8,286046999.9,N
1556037895.6,286046998.2,N
1556037915.5,286046999.7,N
1556037935.3,286047002.7,N
1556037955.1,286046998.2,N
1556037975.9,286046999.0,N
1556037995.7,286046998.8,N
1556038015.5,286046999.5,N
1556038035.4,286046999.5,N
1556038055.2,286047000.1,N
1556038075.1,286047002.0,N
1556038076.0,286047002.0,N
1556038095.8,286047001.6,N
1556038115.6,286047004.8,Y
1556038135.5,286047006.9,P
1556038155.3,286047006.2,N
1556038175.1,286047007.4,N
1556038195.9,286047006.9,N
1556038215.7,286047007.0,N
1556038235.6,286047003.0,N
1556038255.4,286047003.8,N
1556038275.2,286047003.1,N
1556038295.1,286047003.6,N
1556038296.0,286047003.6,N
1556038315.8,286047006.0,N
1556038335.7,286047003.9,N
1556038355.5,286047003.3,N
1556038375.3,286047007.4,Y
1556038395.2,286047000.2,P
1556038415.0,286047000.5,N
1556038415.9,286047000.5,N
1556038435.8,286047001.2,N
1556038455.6,286046998.4,N
1556038475.4,286047000.3,N
1556038495.3,286047001.5,N
1556038515.1,286047002.6,N
1556038535.8,286047000.0,N
1556038555.7,286047000.4,N
1556038575.5,286047000.3,N
1556038595.4,286047000.5,N
1556038615.2,286047001.2,N
1556038635.0,286047000.1,N
1556038635.9,286047000.1,N
1556038655.8,286047002.8,N
1556038675.6,286047000.2,N
1556038695.4,286047002.3,N
1556038715.3,286047002.8,N
1556038735.1,286047001.6,N
1556038755.8,286047002.6,N
1556038775.7,286047002.8,N
1556038795.5,286047002.1,N
